ELECTRON KICK STAGE R/B, 58993

Orbit data source: Space-Track

ELECTRON KICK STAGE R/B, 58993 is space debris in SSO originally from a launch on Sun, 18 Feb 2024 UTC launched from the Rocket Lab Launch Complex (RLLC). Debris objects in space refer to the collection of defunct objects orbiting the Earth. Examples of debris include non-operational satellites, rocket bodies, and fragments generated from explosions, collisions, or faulty payload assembly.

Loading next visibility...
Identifier
58993, 2024-034B
Orbit
SSO
Country
Flag of USUS
Related business
Manufacturer
Rocket Lab
Mission
Spacecraft
Bus & Motor
KICK STAGE, CURIE
Mass
~43 kg wet, ~43 kg dry
Launch date (UTC)
2024-02-18 (2 years ago)
Launch vehicle
Unknown
Launch site
Rocket Lab Launch Complex (RLLC)
Object type
Payload
Rocket body
Debris
Shape & HBR
Trunc Cone, 0.7 m
Radar Cross Section
0.760 m², Medium (>0.1 m² and < 1m²)

Expand to show TLE details & history
Last TLE update: 23 hours ago

TLE from 23 hours ago
0 ELECTRON KICK STAGE R/B
1 58993U 24034B   25242.04537206  .00036104  00000-0  11860-2 0  9991
2 58993  98.2245 261.0289 0023268 350.8719   9.2093 15.31218103 84569
Epoch: 2025-08-30T01:05Z
TLE epoch observation values (Epoch: 2025-08-30T01:05:20.145Z)
Latitude
-0.0001°
Longitude
-93.79033°
Altitude
459.521 km
Speed
7.646 km/s
True Right ascension
17h 24m 06s
True Declination
0° 00' 00"
Sunlit
Object was in daylight at epoch
Visualization orbit readout
Latitude
Unknown
Longitude
Unknown
Altitude
Unknown
Speed
Unknown
Apparent Right ascension
Unknown
Apparent Declination
Unknown
Sunlit
N/A
Visualization observer readout
Local Sidereal Time
15:53:48
Azimuth
Unknown
Elevation
Unknown
Doppler factor
Unknown
Orbital elements
Apogee altitude
485.097 km
Perigee altitude
453.233 km
Semi-major axis
6,847.302 km
Eccentricity
0.00233
Inclination
98.2245°
RAAN
261.0289°
Arg. of periapsis
350.8719°
True anomaly
9.25209°
Mean anomaly
9.2093°
Eccentric anomaly
9.23069°
Mean motion
3.83057 °/min
Orbital period
93.98 mins
BSTAR
0.001186
Loading maneuver chart data...
Computing Atmospheric mass density...
Loading historical data...
Loading historical data...
Loading historical data...
Loading historical data...
Loading historical data...
Loading historical data...
Loading historical data...
Other satellites on launch #34 in the year 2024 (2024-02-18 UTC)

Documentation

Showing up to 5 results
|